HB9CJD-1 Weather Reports


time (UTC)temp
C
wind
direction
speed
KPH
gust
KPH
rain 1hr
cm
rain 24hr
cm
rain mn
cm
humidity
%
barometer
mb
20260507030359 8 0 0.0 0.0 0.00 0.00 0.00 90 1015.5
20260507025356 8 0 0.0 0.0 0.00 0.00 0.00 89 1015.5
20260507024353 8 0 0.0 0.0 0.00 0.00 0.00 88 1015.5
20260507023350 8 0 0.0 0.0 0.00 0.00 0.00 88 1015.4
20260507022346 8 0 0.0 0.0 0.00 0.00 0.00 89 1015.5
20260507021343 8 0 0.0 0.0 0.00 0.00 0.00 87 1015.4
20260507020340 8 0 0.0 0.0 0.00 0.00 0.00 88 1015.2
20260507015337 8 0 0.0 0.0 0.00 0.00 0.00 87 1015.2
20260507014333 8 0 0.0 0.0 0.00 0.00 0.00 86 1015.1
20260507013330 8 0 0.0 0.0 0.00 0.00 0.00 86 1015.1
20260507012328 8 0 0.0 0.0 0.00 0.00 0.00 86 1015.0
20260507011324 8 0 0.0 0.0 0.00 0.00 0.00 86 1015.0
20260507010321 8 0 0.0 0.0 0.00 0.00 0.00 86 1015.0
20260507005317 8 0 0.0 0.0 0.00 0.00 0.00 85 1014.9
20260507004314 8 0 0.0 0.0 0.00 0.00 0.00 86 1014.9
20260507003311 8 0 0.0 0.0 0.00 0.00 0.00 86 1014.9
20260507002308 8 0 0.0 0.0 0.00 0.00 0.00 87 1014.9
20260507001304 8 0 0.0 0.0 0.00 0.00 0.00 88 1014.9
20260507000301 8 0 0.0 0.0 0.00 0.00 0.00 87 1015.0
20260506235258 8 0 0.0 0.0 0.00 0.00 0.00 85 1014.8
20260506234254 8 0 0.0 0.0 0.00 0.00 0.00 88 1014.7
20260506233251 8 0 0.0 0.0 0.00 0.00 0.00 88 1014.7
20260506232248 8 0 0.0 0.0 0.00 0.00 0.00 88 1014.6
20260506231245 8 0 0.0 0.0 0.00 0.00 0.00 88 1014.6
20260506230241 8 0 0.0 0.0 0.00 0.00 0.00 91 1014.5
20260506225238 8 0 0.0 0.0 0.00 0.00 0.00 90 1014.6
20260506224235 8 0 0.0 0.0 0.00 0.00 0.00 87 1014.5
20260506223232 8 0 0.0 0.0 0.00 0.00 0.00 87 1014.5
20260506222228 8 0 0.0 0.0 0.00 0.00 0.00 86 1014.5
20260506221225 8 0 0.0 0.0 0.00 0.00 0.00 86 1014.4
20260506220222 8 0 0.0 0.0 0.00 0.00 0.00 85 1014.4
20260506215219 9 0 0.0 0.0 0.00 0.00 0.00 83 1014.4
20260506214215 9 0 0.0 0.0 0.00 0.00 0.00 84 1014.4
20260506213212 9 0 0.0 0.0 0.00 0.00 0.00 84 1014.4
20260506212209 8 0 0.0 0.0 0.00 0.00 0.00 84 1014.5
20260506211206 9 0 0.0 0.0 0.00 0.00 0.00 82 1014.5
20260506210202 9 0 0.0 0.0 0.00 0.00 0.00 82 1014.4
20260506205159 9 0 0.0 0.0 0.00 0.00 0.00 83 1014.3
20260506204156 9 0 0.0 0.0 0.00 0.00 0.00 82 1014.3
20260506203153 9 0 0.0 0.0 0.00 0.00 0.00 83 1014.3
20260506202149 9 0 0.0 0.0 0.00 0.00 0.00 82 1014.3
20260506201146 9 0 0.0 0.0 0.00 0.00 0.00 82 1014.3
20260506200143 9 0 0.0 0.0 0.00 0.00 0.00 80 1014.3
20260506195140 10 0 0.0 0.0 0.00 0.00 0.00 79 1014.2
20260506194137 10 0 0.0 0.0 0.00 0.00 0.00 79 1014.1
20260506193133 10 0 0.0 0.0 0.00 0.00 0.00 79 1013.9
20260506192130 10 0 0.0 0.0 0.00 0.00 0.00 79 1013.8
20260506191127 10 0 0.0 0.0 0.00 0.00 0.00 78 1013.6
20260506190123 10 0 0.0 0.0 0.00 0.00 0.00 77 1013.4
20260506185120 10 0 0.0 0.0 0.00 0.00 0.00 78 1013.4
20260506184117 10 0 0.0 0.0 0.00 0.00 0.00 77 1013.5
20260506183114 10 0 0.0 0.0 0.00 0.00 0.00 78 1013.2
20260506182110 10 0 0.0 0.0 0.00 0.00 0.00 78 1013.3
20260506181108 10 0 0.0 0.0 0.00 0.00 0.00 80 1013.3
20260506180104 10 0 0.0 0.0 0.00 0.00 0.00 79 1013.1
20260506175101 11 0 0.0 0.0 0.00 0.00 0.00 78 1012.9
20260506174057 11 0 0.0 0.0 0.00 0.00 0.00 78 1012.7
20260506173054 11 0 0.0 0.0 0.00 0.00 0.00 77 1012.6
20260506172051 11 0 0.0 0.0 0.00 0.00 0.00 79 1012.6
20260506171048 11 0 0.0 0.0 0.00 0.00 0.00 79 1012.5
20260506170044 10 0 0.0 0.0 0.00 0.00 0.00 80 1012.4
20260506165041 11 0 0.0 0.0 0.00 0.00 0.00 81 1012.5
20260506164038 11 0 0.0 0.0 0.00 0.00 0.00 82 1012.4
20260506163035 11 0 0.0 0.0 0.00 0.00 0.00 81 1012.4
20260506162032 11 0 0.0 0.0 0.00 0.00 0.00 84 1012.4
20260506161028 11 0 0.0 0.0 0.00 0.00 0.00 84 1012.4
20260506160025 11 0 0.0 0.0 0.00 0.00 0.00 86 1012.3
20260506155022 11 0 0.0 0.0 0.00 0.00 0.00 86 1012.5
20260506154019 10 0 0.0 0.0 0.00 0.00 0.00 84 1012.4
20260506153015 10 0 0.0 0.0 0.00 0.00 0.00 87 1012.4
20260506152012 10 0 0.0 0.0 0.00 0.00 0.00 84 1012.4
20260506151009 10 0 0.0 0.0 0.00 0.00 0.00 86 1012.4
20260506150006 10 0 0.0 0.0 0.00 0.00 0.00 84 1012.5
20260506145002 10 0 0.0 0.0 0.00 0.00 0.00 86 1012.4
20260506143959 10 0 0.0 0.0 0.00 0.00 0.00 89 1012.5
20260506142956 10 0 0.0 0.0 0.00 0.00 0.00 86 1012.4
20260506141952 10 0 0.0 0.0 0.00 0.00 0.00 90 1012.4
20260506140949 10 0 0.0 0.0 0.00 0.00 0.00 89 1012.3
20260506135946 10 0 0.0 0.0 0.00 0.00 0.00 93 1012.3
20260506134943 10 0 0.0 0.0 0.00 0.00 0.00 93 1012.2
20260506133940 10 0 0.0 0.0 0.00 0.00 0.00 90 1012.4
20260506132936 10 0 0.0 0.0 0.00 0.00 0.00 90 1012.4
20260506131933 10 0 0.0 0.0 0.00 0.00 0.00 90 1012.3
20260506130930 10 0 0.0 0.0 0.00 0.00 0.00 90 1012.2
20260506125926 10 0 0.0 0.0 0.00 0.00 0.00 91 1012.1
20260506124923 10 0 0.0 0.0 0.00 0.00 0.00 91 1011.9
20260506123920 10 0 0.0 0.0 0.00 0.00 0.00 89 1011.6
20260506122917 10 0 0.0 0.0 0.00 0.00 0.00 89 1011.3
20260506121913 11 0 0.0 0.0 0.00 0.00 0.00 85 1011.0
20260506120910 12 0 0.0 0.0 0.00 0.00 0.00 85 1010.7
20260506115908 12 0 0.0 0.0 0.00 0.00 0.00 84 1010.4
20260506114904 12 0 0.0 0.0 0.00 0.00 0.00 82 1010.4
20260506113901 12 0 0.0 0.0 0.00 0.00 0.00 78 1010.2
20260506112857 13 0 0.0 0.0 0.00 0.00 0.00 72 1010.1
20260506111854 13 0 0.0 0.0 0.00 0.00 0.00 73 1010.1
20260506110851 13 0 0.0 0.0 0.00 0.00 0.00 77 1009.9
20260506105848 13 0 0.0 0.0 0.00 0.00 0.00 76 1010.1
20260506104844 14 0 0.0 0.0 0.00 0.00 0.00 76 1010.0
20260506103841 13 0 0.0 0.0 0.00 0.00 0.00 76 1010.1
20260506102838 13 0 0.0 0.0 0.00 0.00 0.00 72 1010.1
20260506101835 13 0 0.0 0.0 0.00 0.00 0.00 75 1010.0
20260506100831 13 0 0.0 0.0 0.00 0.00 0.00 75 1010.1
20260506095828 13 0 0.0 0.0 0.00 0.00 0.00 76 1010.1
20260506094825 13 0 0.0 0.0 0.00 0.00 0.00 77 1010.2
20260506093822 13 0 0.0 0.0 0.00 0.00 0.00 79 1010.3
20260506092818 13 0 0.0 0.0 0.00 0.00 0.00 80 1010.2
20260506091815 13 0 0.0 0.0 0.00 0.00 0.00 80 1010.0
20260506090812 13 0 0.0 0.0 0.00 0.00 0.00 79 1010.0
20260506085809 12 0 0.0 0.0 0.00 0.00 0.00 82 1009.9
20260506084805 13 0 0.0 0.0 0.00 0.00 0.00 77 1010.1
20260506083802 13 0 0.0 0.0 0.00 0.00 0.00 74 1010.1
20260506082759 13 0 0.0 0.0 0.00 0.00 0.00 75 1010.1
20260506081756 13 0 0.0 0.0 0.00 0.00 0.00 77 1010.0
20260506080752 13 0 0.0 0.0 0.00 0.00 0.00 77 1009.9
20260506072739 13 0 0.0 0.0 0.00 0.00 0.00 79 1010.1
20260506071736 12 0 0.0 0.0 0.00 0.00 0.00 79 1010.1
20260506070733 12 0 0.0 0.0 0.00 0.00 0.00 83 1010.1
20260506061717 12 0 0.0 0.0 0.00 0.00 0.00 85 1010.2
20260506060713 11 0 0.0 0.0 0.00 0.00 0.00 88 1010.0
20260506050654 11 0 0.0 0.0 0.00 0.00 0.00 81 1010.1
20260506044648 11 0 0.0 0.0 0.00 0.00 0.00 80 1010.1
20260506043644 11 0 0.0 0.0 0.00 0.00 0.00 81 1010.2
20260506042641 11 0 0.0 0.0 0.00 0.00 0.00 80 1010.2
20260506041638 11 0 0.0 0.0 0.00 0.00 0.00 80 1010.2
20260506040634 11 0 0.0 0.0 0.00 0.00 0.00 80 1010.3
20260506035631 11 0 0.0 0.0 0.00 0.00 0.00 82 1010.5
20260506034628 11 0 0.0 0.0 0.00 0.00 0.00 79 1010.7
20260506033625 11 0 0.0 0.0 0.00 0.00 0.00 80 1010.7
20260506032621 11 0 0.0 0.0 0.00 0.00 0.00 81 1010.9
20260506031618 11 0 0.0 0.0 0.00 0.00 0.00 81 1010.9
20260506030615 11 0 0.0 0.0 0.00 0.00 0.00 81 1011.0